Voltar ao catálogo

SPHINX

AtivoMilitarSSO
NORAD 63232·PAYLOAD·🇺🇸 United States
Este nome de satélite ainda não foi confirmado por fontes oficiais.

Lançado Mar 15, 2025 de Vandenberg Space Force Base

Loading…

Próximas Passagens (próximas 24 horas)

TLE

AtualizadoSource: Space-Track

Época: Sep 13, 2026, 16:24 UTC

1 63232U 25052Y   26256.68371977  .00004449  00000-0  18189-3 0  9990
2 63232  97.3808 148.4573 0005341 178.6569 181.4685 15.24859415 83356

Acompanhe SPHINX em tempo real com AllMySat

Download on the App Store